contact:dominique.lefevre@mio.osupytheas.fr, maurice.libes@osupytheas.fr, didier.mallarino@osupytheas.fr
Project:EMSO http://www.emso-fr.org/EMSO-France
Depth: 2436.0 m
Title:EMSO Ligure Ouest : Data MII capteur CSTAR
DateTime,Latitude,Longitude,Instrument_Serial,Reference_Counts,Signal_Counts,Corrected_Signal_raw_counts,Calculated_Beam_c_inverse_meters,Internal_thermistor_counts
DateTime,Latitude,Longitude,Instrument_Serial,Reference_Counts,Signal_Counts,Corrected_Signal_raw_counts,Calculated_Beam_c_inverse_meters,Internal_thermistor_counts
2023-01-06T00:02:36,42.805,6.029,CST-1368DR,4432,4912,11781,01.127,551
2023-01-06T00:05:38,42.805,6.029,CST-1368DR,4432,4912,11781,01.127,551
2023-01-06T00:08:39,42.805,6.029,CST-1368DR,4432,4914,11785,01.126,551
2023-01-06T00:11:41,42.805,6.029,CST-1368DR,4432,4913,11783,01.127,551
2023-01-06T00:14:43,42.805,6.029,CST-1368DR,4432,4912,11782,01.127,551
2023-01-06T00:17:44,42.805,6.029,CST-1368DR,4432,4912,11781,01.127,551
2023-01-06T00:20:46,42.805,6.029,CST-1368DR,4432,4913,11783,01.127,551
2023-01-06T00:23:47,42.805,6.029,CST-1368DR,4432,4916,11790,01.124,551
2023-01-06T00:26:49,42.805,6.029,CST-1368DR,4432,4913,11783,01.127,551
2023-01-06T00:29:51,42.805,6.029,CST-1368DR,4432,4911,11778,01.128,551
2023-01-06T00:32:52,42.805,6.029,CST-1368DR,4432,4911,11779,01.128,551
2023-01-06T00:35:54,42.805,6.029,CST-1368DR,4432,4913,11783,01.127,551
2023-01-06T00:38:55,42.805,6.029,CST-1368DR,4432,4914,11787,01.125,551
2023-01-06T00:41:57,42.805,6.029,CST-1368DR,4432,4912,11781,01.127,551
2023-01-06T00:44:59,42.805,6.029,CST-1368DR,4432,4911,11779,01.128,551
2023-01-06T00:48:00,42.805,6.029,CST-1368DR,4432,4912,11781,01.127,551
2023-01-06T00:51:02,42.805,6.029,CST-1368DR,4432,4910,11777,01.129,551
2023-01-06T00:54:03,42.805,6.029,CST-1368DR,4432,4912,11781,01.127,551
2023-01-06T00:57:05,42.805,6.029,CST-1368DR,4432,4910,11777,01.129,551
2023-01-06T01:00:06,42.805,6.029,CST-1368DR,4432,4911,11780,01.128,551
2023-01-06T01:03:08,42.805,6.029,CST-1368DR,4432,4910,11777,01.129,551
2023-01-06T01:06:10,42.805,6.029,CST-1368DR,4432,4911,11779,01.128,551
2023-01-06T01:09:11,42.805,6.029,CST-1368DR,4432,4912,11780,01.128,551
2023-01-06T01:12:13,42.805,6.029,CST-1368DR,4432,4910,11777,01.129,551
2023-01-06T01:15:14,42.805,6.029,CST-1368DR,4432,4911,11778,01.128,551
2023-01-06T01:18:16,42.805,6.029,CST-1368DR,4432,4911,11780,01.128,551
2023-01-06T01:21:18,42.805,6.029,CST-1368DR,4432,4911,11779,01.128,551
2023-01-06T01:24:19,42.805,6.029,CST-1368DR,4432,4914,11786,01.126,551
2023-01-06T01:27:21,42.805,6.029,CST-1368DR,4432,4910,11775,01.129,551
2023-01-06T01:30:22,42.805,6.029,CST-1368DR,4432,4911,11778,01.128,551
2023-01-06T01:33:24,42.805,6.029,CST-1368DR,4432,4912,11782,01.127,551
2023-01-06T01:36:25,42.805,6.029,CST-1368DR,4432,4910,11776,01.129,551
2023-01-06T01:39:27,42.805,6.029,CST-1368DR,4432,4910,11776,01.129,551
2023-01-06T01:42:29,42.805,6.029,CST-1368DR,4432,4909,11774,01.130,551
2023-01-06T01:45:30,42.805,6.029,CST-1368DR,4432,4909,11774,01.130,551
2023-01-06T01:48:32,42.805,6.029,CST-1368DR,4432,4910,11775,01.129,551
2023-01-06T01:51:33,42.805,6.029,CST-1368DR,4432,4909,11774,01.130,551
2023-01-06T01:54:35,42.805,6.029,CST-1368DR,4432,4909,11774,01.130,551
2023-01-06T01:57:37,42.805,6.029,CST-1368DR,4432,4909,11773,01.130,551
2023-01-06T02:00:38,42.805,6.029,CST-1368DR,4432,4908,11772,01.130,551
2023-01-06T02:03:40,42.805,6.029,CST-1368DR,4432,4911,11778,01.128,551
2023-01-06T02:06:41,42.805,6.029,CST-1368DR,4432,4913,11784,01.126,551
2023-01-06T02:09:43,42.805,6.029,CST-1368DR,4432,4902,11756,01.136,551
2023-01-06T02:12:45,42.805,6.029,CST-1368DR,4432,4905,11765,01.133,551
2023-01-06T02:15:46,42.805,6.029,CST-1368DR,4432,4907,11769,01.131,551
2023-01-06T02:18:48,42.805,6.029,CST-1368DR,4432,4905,11765,01.133,551
2023-01-06T02:21:49,42.805,6.029,CST-1368DR,4432,4906,11767,01.132,551
2023-01-06T02:24:51,42.805,6.029,CST-1368DR,4432,4907,11769,01.131,551
2023-01-06T02:27:52,42.805,6.029,CST-1368DR,4432,4907,11769,01.131,551
2023-01-06T02:30:54,42.805,6.029,CST-1368DR,4432,4908,11771,01.131,551
2023-01-06T02:33:56,42.805,6.029,CST-1368DR,4432,4911,11778,01.128,551
2023-01-06T02:36:57,42.805,6.029,CST-1368DR,4432,4912,11781,01.127,551
2023-01-06T02:39:59,42.805,6.029,CST-1368DR,4432,4909,11774,01.130,551
2023-01-06T02:43:00,42.805,6.029,CST-1368DR,4432,4909,11773,01.130,551
2023-01-06T02:46:02,42.805,6.029,CST-1368DR,4432,4911,11778,01.128,551
2023-01-06T02:49:04,42.805,6.029,CST-1368DR,4432,4910,11777,01.129,551
2023-01-06T02:52:05,42.805,6.029,CST-1368DR,4432,4910,11776,01.129,551
2023-01-06T02:55:07,42.805,6.029,CST-1368DR,4432,4912,11781,01.127,551
2023-01-06T02:58:08,42.805,6.029,CST-1368DR,4432,4909,11774,01.130,551
2023-01-06T03:01:10,42.805,6.029,CST-1368DR,4432,4909,11775,01.129,551
2023-01-06T03:04:11,42.805,6.029,CST-1368DR,4432,4908,11772,01.130,551
2023-01-06T03:07:13,42.805,6.029,CST-1368DR,4432,4910,11777,01.129,551
2023-01-06T03:10:15,42.805,6.029,CST-1368DR,4432,4915,11789,01.125,551
2023-01-06T03:13:16,42.805,6.029,CST-1368DR,4432,4910,11776,01.129,551
2023-01-06T03:16:18,42.805,6.029,CST-1368DR,4432,4909,11774,01.130,551
2023-01-06T03:19:19,42.805,6.029,CST-1368DR,4432,4909,11774,01.130,551
2023-01-06T03:22:21,42.805,6.029,CST-1368DR,4432,4910,11775,01.129,551
2023-01-06T03:25:23,42.805,6.029,CST-1368DR,4432,4908,11772,01.130,551
2023-01-06T03:28:24,42.805,6.029,CST-1368DR,4432,4909,11773,01.130,551
2023-01-06T03:31:26,42.805,6.029,CST-1368DR,4432,4908,11772,01.130,551
2023-01-06T03:34:27,42.805,6.029,CST-1368DR,4432,4909,11773,01.130,551
2023-01-06T03:37:29,42.805,6.029,CST-1368DR,4432,4908,11771,01.131,551
2023-01-06T03:40:31,42.805,6.029,CST-1368DR,4432,4907,11769,01.131,551
2023-01-06T03:43:32,42.805,6.029,CST-1368DR,4432,4908,11771,01.131,551
2023-01-06T03:46:34,42.805,6.029,CST-1368DR,4432,4908,11771,01.131,551
2023-01-06T03:49:35,42.805,6.029,CST-1368DR,4432,4906,11767,01.132,551
2023-01-06T03:52:37,42.805,6.029,CST-1368DR,4432,4908,11771,01.131,551
2023-01-06T03:55:38,42.805,6.029,CST-1368DR,4432,4913,11784,01.126,551
2023-01-06T03:58:40,42.805,6.029,CST-1368DR,4432,4908,11772,01.130,551
2023-01-06T04:01:42,42.805,6.029,CST-1368DR,4432,4909,11773,01.130,551
2023-01-06T04:04:43,42.805,6.029,CST-1368DR,4431,4908,11774,01.130,551
2023-01-06T04:07:45,42.805,6.029,CST-1368DR,4431,4906,11768,01.132,551
2023-01-06T04:10:46,42.805,6.029,CST-1368DR,4432,4906,11767,01.132,551
2023-01-06T04:13:48,42.805,6.029,CST-1368DR,4431,4906,11770,01.131,551
2023-01-06T04:16:50,42.805,6.029,CST-1368DR,4431,4907,11773,01.130,551
2023-01-06T04:19:51,42.805,6.029,CST-1368DR,4431,4907,11773,01.130,551
2023-01-06T04:22:53,42.805,6.029,CST-1368DR,4431,4908,11774,01.130,551
2023-01-06T04:25:54,42.805,6.029,CST-1368DR,4431,4908,11774,01.130,551
2023-01-06T04:28:56,42.805,6.029,CST-1368DR,4432,4907,11769,01.131,551
2023-01-06T04:31:57,42.805,6.029,CST-1368DR,4432,4908,11771,01.131,551
2023-01-06T04:34:59,42.805,6.029,CST-1368DR,4432,4908,11772,01.130,551
2023-01-06T04:38:01,42.805,6.029,CST-1368DR,4432,4908,11772,01.130,551
2023-01-06T04:41:02,42.805,6.029,CST-1368DR,4431,4909,11776,01.129,551
2023-01-06T04:44:04,42.805,6.029,CST-1368DR,4432,4908,11771,01.131,551
2023-01-06T04:47:05,42.805,6.029,CST-1368DR,4432,4908,11772,01.130,551
2023-01-06T04:50:07,42.805,6.029,CST-1368DR,4432,4908,11772,01.130,551
2023-01-06T04:53:09,42.805,6.029,CST-1368DR,4431,4907,11773,01.130,551
2023-01-06T04:56:10,42.805,6.029,CST-1368DR,4431,4908,11773,01.130,551
2023-01-06T04:59:12,42.805,6.029,CST-1368DR,4431,4907,11772,01.130,551
2023-01-06T05:02:13,42.805,6.029,CST-1368DR,4431,4906,11770,01.131,551
2023-01-06T05:05:15,42.805,6.029,CST-1368DR,4431,4906,11768,01.132,551
2023-01-06T05:08:17,42.805,6.029,CST-1368DR,4431,4906,11770,01.131,551
2023-01-06T05:11:18,42.805,6.029,CST-1368DR,4431,4906,11770,01.131,551
2023-01-06T05:14:20,42.805,6.029,CST-1368DR,4431,4908,11774,01.130,551
2023-01-06T05:17:21,42.805,6.029,CST-1368DR,4431,4907,11771,01.131,551
2023-01-06T05:20:23,42.805,6.029,CST-1368DR,4431,4909,11776,01.129,551
2023-01-06T05:23:24,42.805,6.029,CST-1368DR,4431,4908,11773,01.130,551
2023-01-06T05:26:26,42.805,6.029,CST-1368DR,4431,4905,11767,01.132,551
2023-01-06T05:29:28,42.805,6.029,CST-1368DR,4431,4906,11770,01.131,551
2023-01-06T05:32:29,42.805,6.029,CST-1368DR,4431,4905,11767,01.132,551
2023-01-06T05:35:31,42.805,6.029,CST-1368DR,4431,4908,11774,01.130,551
2023-01-06T05:38:32,42.805,6.029,CST-1368DR,4431,4908,11774,01.130,551
2023-01-06T05:41:34,42.805,6.029,CST-1368DR,4431,4910,11779,01.128,551
2023-01-06T05:44:36,42.805,6.029,CST-1368DR,4431,4910,11780,01.128,551
2023-01-06T05:47:37,42.805,6.029,CST-1368DR,4432,4914,11785,01.126,551
2023-01-06T05:50:39,42.805,6.029,CST-1368DR,4432,4911,11779,01.128,551
2023-01-06T05:53:40,42.805,6.029,CST-1368DR,4432,4912,11781,01.127,551
2023-01-06T05:56:42,42.805,6.029,CST-1368DR,4431,4913,11785,01.126,551
2023-01-06T05:59:43,42.805,6.029,CST-1368DR,4431,4914,11789,01.125,551
2023-01-06T06:02:45,42.805,6.029,CST-1368DR,4432,4912,11782,01.127,551
2023-01-06T06:05:47,42.805,6.029,CST-1368DR,4431,4914,11789,01.125,551
2023-01-06T06:08:48,42.805,6.029,CST-1368DR,4431,4909,11777,01.129,551
2023-01-06T06:11:50,42.805,6.029,CST-1368DR,4431,4908,11773,01.130,551
2023-01-06T06:14:51,42.805,6.029,CST-1368DR,4431,4909,11776,01.129,551
2023-01-06T06:17:53,42.805,6.029,CST-1368DR,4431,4911,11781,01.127,551
2023-01-06T06:20:55,42.805,6.029,CST-1368DR,4431,4913,11786,01.126,551
2023-01-06T06:23:56,42.805,6.029,CST-1368DR,4431,4909,11777,01.129,551
2023-01-06T06:26:58,42.805,6.029,CST-1368DR,4431,4908,11774,01.130,551
2023-01-06T06:29:59,42.805,6.029,CST-1368DR,4431,4907,11773,01.130,551
2023-01-06T06:33:01,42.805,6.029,CST-1368DR,4431,4906,11770,01.131,551
2023-01-06T06:36:02,42.805,6.029,CST-1368DR,4431,4906,11770,01.131,551
2023-01-06T06:39:04,42.805,6.029,CST-1368DR,4431,4909,11777,01.129,551
2023-01-06T06:42:06,42.805,6.029,CST-1368DR,4431,4908,11774,01.130,551
2023-01-06T06:45:07,42.805,6.029,CST-1368DR,4431,4911,11781,01.127,551
2023-01-06T06:48:09,42.805,6.029,CST-1368DR,4431,4910,11779,01.128,551
2023-01-06T06:51:10,42.805,6.029,CST-1368DR,4431,4908,11774,01.130,550
2023-01-06T06:54:12,42.805,6.029,CST-1368DR,4431,4909,11777,01.129,551
2023-01-06T06:57:14,42.805,6.029,CST-1368DR,4431,4909,11776,01.129,551
2023-01-06T07:00:15,42.805,6.029,CST-1368DR,4431,4913,11785,01.126,551
2023-01-06T07:03:17,42.805,6.029,CST-1368DR,4431,4910,11778,01.128,551
2023-01-06T07:06:18,42.805,6.029,CST-1368DR,4431,4909,11776,01.129,551
2023-01-06T07:09:20,42.805,6.029,CST-1368DR,4431,4913,11786,01.126,551
2023-01-06T07:12:22,42.805,6.029,CST-1368DR,4431,4909,11776,01.129,551
2023-01-06T07:15:23,42.805,6.029,CST-1368DR,4431,4906,11770,01.131,551
2023-01-06T07:18:25,42.805,6.029,CST-1368DR,4431,4906,11770,01.131,551
2023-01-06T07:21:26,42.805,6.029,CST-1368DR,4431,4907,11771,01.131,551
2023-01-06T07:24:28,42.805,6.029,CST-1368DR,4431,4909,11776,01.129,551
2023-01-06T07:27:29,42.805,6.029,CST-1368DR,4431,4906,11770,01.131,551
2023-01-06T07:30:31,42.805,6.029,CST-1368DR,4431,4906,11769,01.131,551
2023-01-06T07:33:33,42.805,6.029,CST-1368DR,4431,4906,11770,01.131,551
2023-01-06T07:36:34,42.805,6.029,CST-1368DR,4431,4908,11775,01.129,551
2023-01-06T07:39:36,42.805,6.029,CST-1368DR,4431,4906,11770,01.131,551
2023-01-06T07:42:37,42.805,6.029,CST-1368DR,4431,4913,11786,01.126,551
2023-01-06T07:45:39,42.805,6.029,CST-1368DR,4431,4909,11776,01.129,551
2023-01-06T07:48:41,42.805,6.029,CST-1368DR,4431,4910,11779,01.128,551
2023-01-06T07:51:42,42.805,6.029,CST-1368DR,4431,4910,11778,01.128,551
2023-01-06T07:54:44,42.805,6.029,CST-1368DR,4431,4909,11777,01.129,551
2023-01-06T07:57:45,42.805,6.029,CST-1368DR,4431,4907,11773,01.130,551
2023-01-06T08:00:47,42.805,6.029,CST-1368DR,4431,4912,11784,01.126,551
2023-01-06T08:03:48,42.805,6.029,CST-1368DR,4431,4910,11780,01.128,551
2023-01-06T08:06:50,42.805,6.029,CST-1368DR,4431,4911,11782,01.127,551
2023-01-06T08:09:52,42.805,6.029,CST-1368DR,4431,4910,11779,01.128,551
2023-01-06T08:12:53,42.805,6.029,CST-1368DR,4431,4908,11775,01.129,551
2023-01-06T08:15:55,42.805,6.029,CST-1368DR,4431,4909,11777,01.129,551
2023-01-06T08:18:56,42.805,6.029,CST-1368DR,4431,4909,11776,01.129,551
2023-01-06T08:21:58,42.805,6.029,CST-1368DR,4431,4913,11785,01.126,551
2023-01-06T08:25:00,42.805,6.029,CST-1368DR,4431,4906,11769,01.131,551
2023-01-06T08:28:01,42.805,6.029,CST-1368DR,4431,4908,11773,01.130,551
2023-01-06T08:31:03,42.805,6.029,CST-1368DR,4431,4908,11775,01.129,551
2023-01-06T08:34:04,42.805,6.029,CST-1368DR,4431,4908,11773,01.130,551
2023-01-06T08:37:06,42.805,6.029,CST-1368DR,4431,4912,11783,01.127,551
2023-01-06T08:40:07,42.805,6.029,CST-1368DR,4431,4908,11775,01.129,551
2023-01-06T08:43:09,42.805,6.029,CST-1368DR,4431,4911,11782,01.127,551
2023-01-06T08:46:11,42.805,6.029,CST-1368DR,4431,4908,11774,01.130,551
2023-01-06T08:49:12,42.805,6.029,CST-1368DR,4431,4910,11778,01.128,551
2023-01-06T08:52:14,42.805,6.029,CST-1368DR,4431,4909,11776,01.129,551
2023-01-06T08:55:15,42.805,6.029,CST-1368DR,4431,4910,11779,01.128,551
2023-01-06T08:58:17,42.805,6.029,CST-1368DR,4431,4910,11778,01.128,551
2023-01-06T09:01:19,42.805,6.029,CST-1368DR,4431,4909,11777,01.129,551
2023-01-06T09:04:20,42.805,6.029,CST-1368DR,4431,4911,11780,01.128,551
2023-01-06T09:07:22,42.805,6.029,CST-1368DR,4431,4911,11782,01.127,551
2023-01-06T09:10:23,42.805,6.029,CST-1368DR,4431,4910,11780,01.128,551
2023-01-06T09:13:25,42.805,6.029,CST-1368DR,4431,4913,11786,01.126,551
2023-01-06T09:16:26,42.805,6.029,CST-1368DR,4431,4911,11780,01.128,551
2023-01-06T09:19:28,42.805,6.029,CST-1368DR,4431,4910,11780,01.128,551
2023-01-06T09:22:30,42.805,6.029,CST-1368DR,4431,4912,11783,01.127,551
2023-01-06T09:25:31,42.805,6.029,CST-1368DR,4431,4910,11779,01.128,551
2023-01-06T09:28:33,42.805,6.029,CST-1368DR,4431,4912,11784,01.126,551
2023-01-06T09:31:34,42.805,6.029,CST-1368DR,4431,4910,11779,01.128,551
2023-01-06T09:34:36,42.805,6.029,CST-1368DR,4431,4911,11780,01.128,551
2023-01-06T09:37:38,42.805,6.029,CST-1368DR,4431,4908,11774,01.130,551
2023-01-06T09:40:39,42.805,6.029,CST-1368DR,4431,4907,11773,01.130,551
2023-01-06T09:43:41,42.805,6.029,CST-1368DR,4431,4907,11771,01.131,551
2023-01-06T09:46:42,42.805,6.029,CST-1368DR,4431,4906,11769,01.131,551
2023-01-06T09:49:44,42.805,6.029,CST-1368DR,4431,4912,11783,01.127,551
2023-01-06T09:52:45,42.805,6.029,CST-1368DR,4431,4913,11786,01.126,551
2023-01-06T09:55:47,42.805,6.029,CST-1368DR,4431,4923,11810,01.117,551
2023-01-06T09:58:49,42.805,6.029,CST-1368DR,4431,4915,11792,01.123,551
2023-01-06T10:01:50,42.805,6.029,CST-1368DR,4431,4912,11783,01.127,551
2023-01-06T10:04:52,42.805,6.029,CST-1368DR,4431,4907,11771,01.131,551
2023-01-06T10:07:53,42.805,6.029,CST-1368DR,4431,4906,11770,01.131,551
2023-01-06T10:10:55,42.805,6.029,CST-1368DR,4431,4905,11768,01.132,551
2023-01-06T10:13:57,42.805,6.029,CST-1368DR,4431,4906,11770,01.131,551
2023-01-06T10:16:58,42.805,6.029,CST-1368DR,4431,4906,11770,01.131,551
2023-01-06T10:20:00,42.805,6.029,CST-1368DR,4431,4898,11750,01.138,551
2023-01-06T10:23:01,42.805,6.029,CST-1368DR,4431,4905,11768,01.132,551
2023-01-06T10:26:03,42.805,6.029,CST-1368DR,4431,4905,11767,01.132,551
2023-01-06T10:29:04,42.805,6.029,CST-1368DR,4431,4905,11767,01.132,551
2023-01-06T10:32:06,42.805,6.029,CST-1368DR,4431,4906,11770,01.131,551
2023-01-06T10:35:08,42.805,6.029,CST-1368DR,4431,4906,11770,01.131,551
2023-01-06T10:38:09,42.805,6.029,CST-1368DR,4431,4905,11767,01.132,551
2023-01-06T10:41:11,42.805,6.029,CST-1368DR,4431,4905,11767,01.132,551
2023-01-06T10:44:12,42.805,6.029,CST-1368DR,4431,4906,11768,01.132,551
2023-01-06T10:47:14,42.805,6.029,CST-1368DR,4431,4905,11768,01.132,551
2023-01-06T10:50:16,42.805,6.029,CST-1368DR,4431,4901,11758,01.135,551
2023-01-06T10:53:17,42.805,6.029,CST-1368DR,4431,4905,11767,01.132,551
2023-01-06T10:56:19,42.805,6.029,CST-1368DR,4431,4904,11765,01.133,551
2023-01-06T10:59:20,42.805,6.029,CST-1368DR,4431,4905,11766,01.132,551
2023-01-06T11:02:22,42.805,6.029,CST-1368DR,4431,4905,11766,01.132,551
2023-01-06T11:05:24,42.805,6.029,CST-1368DR,4431,4904,11765,01.133,551
2023-01-06T11:08:25,42.805,6.029,CST-1368DR,4431,4905,11767,01.132,551
2023-01-06T11:11:27,42.805,6.029,CST-1368DR,4431,4904,11765,01.133,551
2023-01-06T11:14:28,42.805,6.029,CST-1368DR,4431,4905,11767,01.132,551
2023-01-06T11:17:30,42.805,6.029,CST-1368DR,4431,4905,11767,01.132,551
2023-01-06T11:20:31,42.805,6.029,CST-1368DR,4431,4904,11765,01.133,551
2023-01-06T11:23:33,42.805,6.029,CST-1368DR,4431,4904,11765,01.133,551
2023-01-06T11:26:35,42.805,6.029,CST-1368DR,4431,4905,11766,01.132,551
2023-01-06T11:29:36,42.805,6.029,CST-1368DR,4431,4902,11760,01.134,551
2023-01-06T11:32:38,42.805,6.029,CST-1368DR,4431,4904,11764,01.133,551
2023-01-06T11:35:39,42.805,6.029,CST-1368DR,4431,4905,11766,01.132,551
2023-01-06T11:38:41,42.805,6.029,CST-1368DR,4431,4904,11765,01.133,551
2023-01-06T11:41:43,42.805,6.029,CST-1368DR,4431,4904,11765,01.133,551
2023-01-06T11:44:44,42.805,6.029,CST-1368DR,4431,4905,11767,01.132,551
2023-01-06T11:47:46,42.805,6.029,CST-1368DR,4431,4905,11768,01.132,551
2023-01-06T11:50:47,42.805,6.029,CST-1368DR,4431,4905,11767,01.132,551
2023-01-06T11:53:49,42.805,6.029,CST-1368DR,4431,4904,11765,01.133,551
2023-01-06T11:56:50,42.805,6.029,CST-1368DR,4431,4904,11764,01.133,551
2023-01-06T11:59:52,42.805,6.029,CST-1368DR,4431,4905,11767,01.132,551
2023-01-06T12:02:54,42.805,6.029,CST-1368DR,4431,4910,11779,01.128,551
2023-01-06T12:05:55,42.805,6.029,CST-1368DR,4431,4906,11768,01.132,551
2023-01-06T12:08:57,42.805,6.029,CST-1368DR,4431,4904,11765,01.133,551
2023-01-06T12:11:58,42.805,6.029,CST-1368DR,4431,4904,11765,01.133,551
2023-01-06T12:15:00,42.805,6.029,CST-1368DR,4431,4904,11764,01.133,551
2023-01-06T12:18:02,42.805,6.029,CST-1368DR,4431,4903,11762,01.134,551
2023-01-06T12:21:03,42.805,6.029,CST-1368DR,4431,4912,11783,01.127,551
2023-01-06T12:24:05,42.805,6.029,CST-1368DR,4431,4907,11771,01.131,551
2023-01-06T12:27:06,42.805,6.029,CST-1368DR,4431,4906,11768,01.132,551
2023-01-06T12:30:08,42.805,6.029,CST-1368DR,4431,4906,11770,01.131,551
2023-01-06T12:33:10,42.805,6.029,CST-1368DR,4431,4906,11769,01.131,551
2023-01-06T12:36:11,42.805,6.029,CST-1368DR,4431,4906,11770,01.131,551
2023-01-06T12:39:13,42.805,6.029,CST-1368DR,4431,4906,11769,01.131,551
2023-01-06T12:42:14,42.805,6.029,CST-1368DR,4431,4905,11768,01.132,551
2023-01-06T12:45:16,42.805,6.029,CST-1368DR,4431,4905,11767,01.132,551
2023-01-06T12:48:17,42.805,6.029,CST-1368DR,4431,4905,11767,01.132,551
2023-01-06T12:51:19,42.805,6.029,CST-1368DR,4431,4904,11765,01.133,551
2023-01-06T12:54:21,42.805,6.029,CST-1368DR,4431,4904,11764,01.133,551
2023-01-06T12:57:22,42.805,6.029,CST-1368DR,4431,4906,11768,01.132,551
2023-01-06T13:00:24,42.805,6.029,CST-1368DR,4431,4905,11767,01.132,551
2023-01-06T13:03:25,42.805,6.029,CST-1368DR,4430,4905,11770,01.131,551
2023-01-06T13:06:27,42.805,6.029,CST-1368DR,4431,4905,11766,01.132,551
2023-01-06T13:09:29,42.805,6.029,CST-1368DR,4431,4906,11769,01.131,551
2023-01-06T13:12:30,42.805,6.029,CST-1368DR,4431,4907,11773,01.130,551
2023-01-06T13:15:32,42.805,6.029,CST-1368DR,4431,4906,11770,01.131,551
2023-01-06T13:18:33,42.805,6.029,CST-1368DR,4431,4906,11769,01.131,550
2023-01-06T13:21:35,42.805,6.029,CST-1368DR,4431,4905,11768,01.132,551
2023-01-06T13:24:36,42.805,6.029,CST-1368DR,4431,4909,11776,01.129,551
2023-01-06T13:27:38,42.805,6.029,CST-1368DR,4431,4906,11770,01.131,551
2023-01-06T13:30:40,42.805,6.029,CST-1368DR,4431,4905,11768,01.132,551
2023-01-06T13:33:41,42.805,6.029,CST-1368DR,4430,4902,11763,01.133,551
2023-01-06T13:36:43,42.805,6.029,CST-1368DR,4431,4905,11767,01.132,551
2023-01-06T13:39:44,42.805,6.029,CST-1368DR,4430,4905,11770,01.131,551
2023-01-06T13:42:46,42.805,6.029,CST-1368DR,4430,4905,11769,01.131,551
2023-01-06T13:45:48,42.805,6.029,CST-1368DR,4431,4905,11767,01.132,551
2023-01-06T13:48:49,42.805,6.029,CST-1368DR,4430,4905,11769,01.131,551
2023-01-06T13:51:51,42.805,6.029,CST-1368DR,4430,4904,11767,01.132,551
2023-01-06T13:54:52,42.805,6.029,CST-1368DR,4430,4904,11767,01.132,551
2023-01-06T13:57:54,42.805,6.029,CST-1368DR,4430,4905,11769,01.131,551
2023-01-06T14:00:55,42.805,6.029,CST-1368DR,4430,4905,11769,01.131,551
2023-01-06T14:03:57,42.805,6.029,CST-1368DR,4430,4904,11766,01.132,551
2023-01-06T14:06:59,42.805,6.029,CST-1368DR,4431,4904,11764,01.133,551
2023-01-06T14:10:00,42.805,6.029,CST-1368DR,4430,4904,11767,01.132,551
2023-01-06T14:13:02,42.805,6.029,CST-1368DR,4430,4904,11767,01.132,551
2023-01-06T14:16:03,42.805,6.029,CST-1368DR,4431,4904,11765,01.133,551
2023-01-06T14:19:05,42.805,6.029,CST-1368DR,4431,4905,11766,01.132,551
2023-01-06T14:22:07,42.805,6.029,CST-1368DR,4430,4902,11762,01.134,551
2023-01-06T14:25:08,42.805,6.029,CST-1368DR,4431,4904,11765,01.133,551
2023-01-06T14:28:10,42.805,6.029,CST-1368DR,4431,4904,11765,01.133,551
2023-01-06T14:31:11,42.805,6.029,CST-1368DR,4431,4905,11766,01.132,551
2023-01-06T14:34:13,42.805,6.029,CST-1368DR,4431,4904,11765,01.133,551
2023-01-06T14:37:14,42.805,6.029,CST-1368DR,4431,4904,11765,01.133,551
2023-01-06T14:40:16,42.805,6.029,CST-1368DR,4431,4904,11765,01.133,551
2023-01-06T14:43:18,42.805,6.029,CST-1368DR,4431,4904,11765,01.133,551
2023-01-06T14:46:19,42.805,6.029,CST-1368DR,4431,4905,11766,01.132,551
2023-01-06T14:49:21,42.805,6.029,CST-1368DR,4431,4904,11765,01.133,551
2023-01-06T14:52:22,42.805,6.029,CST-1368DR,4431,4904,11764,01.133,551
2023-01-06T14:55:24,42.805,6.029,CST-1368DR,4431,4905,11767,01.132,551
2023-01-06T14:58:26,42.805,6.029,CST-1368DR,4431,4904,11765,01.133,551
2023-01-06T15:01:27,42.805,6.029,CST-1368DR,4430,4905,11769,01.131,551
2023-01-06T15:04:29,42.805,6.029,CST-1368DR,4430,4902,11762,01.134,551
2023-01-06T15:07:30,42.805,6.029,CST-1368DR,4430,4903,11764,01.133,551
2023-01-06T15:10:32,42.805,6.029,CST-1368DR,4431,4904,11764,01.133,551
2023-01-06T15:13:34,42.805,6.029,CST-1368DR,4430,4904,11767,01.132,551
2023-01-06T15:16:35,42.805,6.029,CST-1368DR,4430,4905,11769,01.131,551
2023-01-06T15:19:37,42.805,6.029,CST-1368DR,4430,4904,11766,01.132,551
2023-01-06T15:22:38,42.805,6.029,CST-1368DR,4430,4903,11765,01.133,551
2023-01-06T15:25:40,42.805,6.029,CST-1368DR,4431,4905,11767,01.132,551
2023-01-06T15:28:41,42.805,6.029,CST-1368DR,4430,4904,11767,01.132,551
2023-01-06T15:31:43,42.805,6.029,CST-1368DR,4430,4905,11769,01.131,551
2023-01-06T15:34:45,42.805,6.029,CST-1368DR,4430,4904,11768,01.132,551
2023-01-06T15:37:46,42.805,6.029,CST-1368DR,4430,4904,11767,01.132,551
2023-01-06T15:40:48,42.805,6.029,CST-1368DR,4430,4904,11767,01.132,551
2023-01-06T15:43:49,42.805,6.029,CST-1368DR,4430,4903,11765,01.133,551
2023-01-06T15:46:51,42.805,6.029,CST-1368DR,4430,4904,11767,01.132,551
2023-01-06T15:49:53,42.805,6.029,CST-1368DR,4430,4904,11767,01.132,551
2023-01-06T15:52:54,42.805,6.029,CST-1368DR,4430,4904,11767,01.132,551
2023-01-06T15:55:56,42.805,6.029,CST-1368DR,4430,4905,11769,01.131,551
2023-01-06T15:58:57,42.805,6.029,CST-1368DR,4430,4904,11767,01.132,551
2023-01-06T16:01:59,42.805,6.029,CST-1368DR,4430,4904,11767,01.132,551
2023-01-06T16:05:00,42.805,6.029,CST-1368DR,4430,4903,11764,01.133,551
2023-01-06T16:08:02,42.805,6.029,CST-1368DR,4430,4900,11757,01.135,551
2023-01-06T16:11:04,42.805,6.029,CST-1368DR,4430,4905,11769,01.131,551
2023-01-06T16:14:05,42.805,6.029,CST-1368DR,4430,4905,11770,01.131,551
2023-01-06T16:17:07,42.805,6.029,CST-1368DR,4430,4905,11770,01.131,551
2023-01-06T16:20:08,42.805,6.029,CST-1368DR,4430,4904,11768,01.132,551
2023-01-06T16:23:10,42.805,6.029,CST-1368DR,4430,4904,11767,01.132,551
2023-01-06T16:26:12,42.805,6.029,CST-1368DR,4430,4904,11767,01.132,551
2023-01-06T16:29:13,42.805,6.029,CST-1368DR,4430,4904,11767,01.132,551
2023-01-06T16:32:15,42.805,6.029,CST-1368DR,4430,4905,11770,01.131,551
2023-01-06T16:35:16,42.805,6.029,CST-1368DR,4430,4905,11770,01.131,551
2023-01-06T16:38:18,42.805,6.029,CST-1368DR,4430,4906,11772,01.130,551